Terug naar catalogus

THORAD DELTA 1 DEB

ActiefLEO
NORAD 8153·DEBRIS·🇺🇸 United States

Gelanceerd Nov 15, 1974 vanaf Vandenberg Space Force Base

Loading…

Volgende Passages (komende 24 uur)

TLE

VersSource: Space-Track

Epoch: Sep 14, 2026, 13:54 UTC

1  8153U 74089T   26257.57958522 -.00000096  00000-0 -59143-3 0  9992
2  8153 100.9098 284.2557 0282864 189.8784 324.6833 12.09320252289109

Volg THORAD DELTA 1 DEB in realtime met AllMySat

Download on the App Store